Location: ??????
(38.0677°N, 22.9870°E)
Time: 12:02:48
(UTC+00:00)

IDEFIX/ARIANE 42P - Pass Details

Date: 23 May 2024
Orbit: 783 x 799 km, 98.5° (Epoch: 19 June)

Event Time Altitude Azimuth Distance (km) Brightness Sun altitude
Rises 01:20:08 0° 357° (N) 3,313 6.5 -18.3°
Reaches altitude 10° 01:22:57 10° 343° (NNW) 2,379 5.4 -17.9°
Maximum altitude 01:26:50 22° 295° (WNW) 1,709 4.1 -17.4°
Enters shadow 01:28:34 18° 268° (W) 1,860 4.1 -17.2°
